Location: Ferintosh
(52.7647°N, 112.9692°W)
Time: 18:09:01
(UTC+00:00)

Explorer 7 - Pass Details

Date: 23 May 2024
Orbit: 466 x 622 km, 50.3° (Epoch: 15 June)

Event Time Altitude Azimuth Distance (km) Brightness Sun altitude
Rises 11:08:39 0° 279° (W) 2,659 9.9 -2.5°
Reaches altitude 10° 11:11:01 10° 268° (W) 1,797 9.0 -2.2°
Maximum altitude 11:14:34 29° 207° (SSW) 1,033 7.8 -1.8°
Drops below altitude 10° 11:18:18 10° 147° (SSE) 1,879 9.5 -1.3°
Sets 11:20:49 0° 137° (SE) 2,804 10.5 -1.0°
